Location: Riverside
(39.1734°N, 77.8561°W)
Time: 00:41:19
(UTC+00:00)

STARS - Visible Passes

Search period start: 22 November 2019 00:00
Search period end: 02 December 2019 00:00
Orbit: 624 x 640 km, 98.3° (Epoch: 21 November)

Date Brightness Start Highest point End Pass type
(mag) Time Alt. Az. Time Alt. Az. Time Alt. Az.
24 Nov ? 11:28:15 10° E 11:30:47 15° ENE 11:33:18 10° NNE visible
28 Nov ? 11:17:24 10° E 11:18:44 11° ENE 11:20:05 10° NE visible
29 Nov ? 11:36:32 10° ESE 11:39:32 18° ENE 11:42:32 10° NNE visible
